Regional Weather Roundup
Issued by NWS

Home | Current Version | Previous Version | Text Only | Print | Product List | Glossary Off
Versions: 1 2 3 4 5 6 7 8 9 10 11 12 13 14 15 16 17 18 19 20 21 22 23 24 25 26 27 28 29 30 31 32 33 34 35 36 37 38 39 40 41 42 43 44 45 46 47 48 49 50

000
ASUS43 KIND 112209
RWRIN

WEATHER ROUNDUP FOR INDIANA
NATIONAL WEATHER SERVICE INDIANAPOLIS IN
600 PM EDT FRI JUL 11 2014

NOTE: "FAIR" INDICATES FEW OR NO CLOUDS BELOW 12,000 FEET WITH NO
SIGNIFICANT WEATHER AND/OR OBSTRUCTIONS TO VISIBILITY.

* - STATION DOES NOT REPORT WEATHER SUCH AS PRECIPITATION OR FOG.

+ - STATION NOT QUALITY CONTROLLED BY THE NATIONAL WEATHER SERVICE.
    USE DATA WITH CAUTION...ESPECIALLY DEWPOINT AND RELATIVE
    HUMIDITY OBSERVATIONS.

INZ001>003-010>013-019-020-112300-
NORTHWEST INDIANA

CITY           SKY/WX    TMP DP  RH WIND       PRES   REMARKS
GARY /AIRPORT/ PTSUNNY   81  54  39 SE5       30.14F
KNOX *+        CLOUDY    78  55  43 S6        30.14F
LA PORTE +     CLOUDY    76  55  47 SW5       30.15F
MICHIGAN CITY+ CLOUDY    75  55  50 SW3       30.15S
MONTICELLO +   PTSUNNY   79  58  49 S3        30.14F
RENSSELAER +   PTSUNNY   79  59  50 S9        30.14F
VALPARAISO     CLOUDY    78  55  44 S7        30.15F

$$

LMZ046-743>745-112300-
SOUTHERN LAKE MICHIGAN

STATION/POSITION TIME  TEMP WIND        PRES
                       AIR  DIR/SP/G
                 (UTC) (F)  (DEG/KT/KT) (MB)
MICHIGAN CITY    2200   73   20/  6/  7   N/A

$$

INZ004-005-014>016-021>024-112300-
NORTH CENTRAL INDIANA

CITY           SKY/WX    TMP DP  RH WIND       PRES   REMARKS
GOSHEN         MOSUNNY   80  55  42 SW8       30.15F
LOGANSPORT +   MOSUNNY   77  55  47 S5        30.16F
PERU/GRISSOM   SUNNY     81  60  47 S5        30.15F
ROCHESTER +    MOSUNNY   81  54  39 S5        30.16F
SOUTH BEND     CLOUDY    79  54  41 S8        30.15F
WARSAW +       SUNNY     79  55  44 CALM      30.16F

$$

INZ006>009-017-018-025>027-112300-
NORTHEAST INDIANA

CITY           SKY/WX    TMP DP  RH WIND       PRES   REMARKS
ANGOLA *+      SUNNY     81  57  44 S7        30.16F
AUBURN +       MOSUNNY   81  52  36 CALM      30.17S
FORT WAYNE     PTSUNNY   82  53  36 SW9       30.17F
HUNTINGTON +   SUNNY     80  54  40 S5        30.16F

$$

INZ028-029-035-036-043>045-051>053-112300-
WEST CENTRAL INDIANA

CITY           SKY/WX    TMP DP  RH WIND       PRES   REMARKS
GREENCASTLE +  SUNNY     79  59  50 S3        30.16F
LAFAYETTE      MOSUNNY   80  58  46 SW6       30.14F
TERRE HAUTE    SUNNY     82  59  45 E6        30.14F

$$

INZ030>032-037>040-046>048-054>057-064-065-112300-
CENTRAL INDIANA

CITY           SKY/WX    TMP DP  RH WIND       PRES   REMARKS
CP ATTERBURY + SUNNY     82  54  36 CALM      30.16S
FRANKFORT +    MOSUNNY   81  61  50 S3        30.17
INDIANAPOLIS   MOSUNNY   80  58  46 S7        30.15F
-EAGLE CREEK   SUNNY     81  53  37 SW6       30.15F
KOKOMO *+      MOSUNNY   81  57  44 S7        30.16F
MARION +       SUNNY     79  54  41 SW6       30.17F
MT COMFORT *+  SUNNY     81  59  47 S3        30.16F
SHELBYVILLE    SUNNY     83  59  44 W6        30.16F
ZIONSVILLE +   SUNNY     82  53  37 SW7       30.16F

$$

INZ033-034-041-042-049-050-058-059-112300-
EAST CENTRAL INDIANA

CITY           SKY/WX    TMP DP  RH WIND       PRES   REMARKS
MUNCIE         MOSUNNY   81  55  40 W9        30.17F

$$

INZ060-061-067>069-081>083-085>088-112300-
SOUTHWEST INDIANA

CITY           SKY/WX    TMP DP  RH WIND       PRES   REMARKS
EVANSVILLE     SUNNY     86  59  39 S3        30.13F
HUNTINGBURG *+ SUNNY     84  57  39 CALM      30.14F
WASHINGTON +   SUNNY     83  61  47 SE6       30.13F

$$

INZ062-063-066-070>080-084-089>092-112300-
SOUTH CENTRAL AND SOUTHEAST INDIANA

CITY           SKY/WX    TMP DP  RH WIND       PRES   REMARKS
BLOOMINGTON    SUNNY     82  55  39 W3        30.15F

$$




USA.gov is the U.S. government's official web portal to all federal, state and local government web resources and services.